Regional Weather Roundup
Issued by NWS

Home | Current Version | Previous Version | Graphics & Text | Print | Product List | Glossary On
Versions: 1 2 3 4 5 6 7 8 9 10 11 12 13 14 15 16 17 18 19 20 21 22 23 24 25 26 27 28 29 30 31 32 33 34 35 36 37 38 39 40 41 42 43 44 45 46 47 48 49 50
000
ASUS43 KTOP 290208
RWRKS

WEATHER ROUNDUP FOR KANSAS
NATIONAL WEATHER SERVICE GOODLAND KS
900 PM CDT THU MAY 28 2015

NOTE:  "FAIR" INDICATES FEW OR NO CLOUDS BELOW 12,000 FEET WITH NO
SIGNIFICANT WEATHER AND/OR OBSTRUCTIONS TO VISIBILITY.

KSZ001>006-013>018-027>032-041>047-290300-
NORTHWEST KANSAS

CITY           SKY/WX    TMP DP  RH WIND       PRES   REMARKS
GOODLAND       CLOUDY    58  52  80 SW5       30.00F
HAYS           CLOUDY    61  52  72 W26G33    29.98R
HILL CITY      TSTM      60  54  80 S13       29.97F
RUSSELL        TSTM      61  58  90 NW17      29.94S
$$

KSZ061>065-074>080-084>089-290300-
SOUTHWEST KANSAS

CITY           SKY/WX    TMP DP  RH WIND       PRES   REMARKS
DODGE CITY     CLOUDY    61  56  83 N12       29.97S
ELKHART          N/A     60  47  62 SE20        N/A
GARDEN CITY    TSTM      58  57  97 N12       29.98R FOG
GREAT BEND     CLOUDY    63  55  77 N5G20     30.00R THUNDER
LIBERAL        CLOUDY    63  52  67 S22G33    29.95F
PRATT          MOCLDY    72  63  73 S6        29.93F
$$

KSZ066>073-081>083-090>101-290300-
SOUTHEAST KANSAS

CITY           SKY/WX    TMP DP  RH WIND       PRES   REMARKS
CHANUTE        MOCLDY    68  66  93 SE5       29.96S
COFFEYVILLE    PTCLDY    69  67  93 E5        29.94R
HUTCHINSON     MOCLDY    73  63  70 SE7       29.92R
MEDICINE LODGE   N/A     75  65  70 SE8       29.90F
NEWTON         MOCLDY    70  61  73 SE5       29.96R
PARSONS        PTCLDY    69  67  93 CALM      29.97R
WICHITA INTL   MOCLDY    73  65  75 SE9       29.92R
WICHITA JABRA  CLOUDY    71  64  78 SE6       29.92S
WICHITA MCCONL CLOUDY    73  66  78 E8        29.93R
WINFIELD       CLOUDY    73  67  81 SE7       29.94R
$$

KSZ007>012-019>026-033>040-048>060-102>105-290300-
NORTHEAST KANSAS

CITY           SKY/WX    TMP DP  RH WIND       PRES   REMARKS
CONCORDIA      CLOUDY    69  64  84 SE6       29.92S
EMPORIA        MOCLDY    69  64  84 SE7       29.95R
LAWRENCE       MOCLDY    68  63  84 E5        29.97R
MANHATTAN      MOCLDY    71  64  78 CALM      29.93S
MARYSVILLE     CLOUDY    70  64  83 S5        29.94R
OLATHE IND     MOCLDY    67  63  87 E3        29.99R
OLATHE EXE     PTCLDY    68  64  87 SE6       29.98R
SALINA         MOCLDY    71  64  78 S5        29.91F
TOPEKA BILLARD PTCLDY    69  64  84 SE8       29.96S
TOPEKA FORBES  PTCLDY    70  64  81 SE7       29.96S
$$



USA.gov is the U.S. government's official web portal to all federal, state and local government web resources and services.